User: anonymous
Location: Mentone
(34.5413°N, 85.5351°W)
Time: 09:11:53
(UTC-05:00)
Language:

Centaur AC-72 - Orbit

View from above orbital plane
View from above orbital plane
View from above satellite
View from above satellite

Ground track
Ground track

The orbit data is extracted from the following two-line orbital elements,

1 21907U 92013B   14240.59102902 -.00000108  00000-0  00000+0 0  9149
2 21907 019.0835 237.3483 6959696 274.8515 273.8524 02.25609050185171
Epoch (UTC): 28 August 2014 14:11:04
Eccentricity: 0.6959696
inclination: 19.0835°
perigee height: 1088 km
apogee height: 35268 km
right ascension of ascending node: 237.3483°
argument of perigee: 274.8515°
revolutions per day: 2.25609050
mean anomaly at epoch: 273.8524°
orbit number at epoch: 18517

The dashed part of the orbit path shows where the satellite is in the earth's shadow,  

DLR